DECAYED

STARLINK-5008, 53927 (Decayed)

Orbit data source: Space-Track

STARLINK-5008, 53927 was a payload satellite owned by SpaceX/Seattle (US) in LEO that was launched on Sat, 24 Sep 2022 UTC via an FALCON 9 launch vehicle from the Air Force Eastern Test Range (AFETR). Payload-class satellites include a variety of spacecraft equipped with specific instruments for various scientific and technological missions. These include communications satellites like Starlink; space stations such as the ISS; scientific satellites like the Hubble; Earth observation satellites from companies like Planet Labs, Umbra, and HawkEye 360; GPS; miniature CubeSats for education and research; and military/defense satellites.

Not visible in the next 10 days
Identifier
53927, 2022-119AT
Orbit
Decayed
Country
Flag of USUS
Related business
Manufacturer
SpaceX/Seattle
Mission
Decayed Commercial Communications
Bus & Motor
STARLINK, Unknown motor
Mass
305 kg wet, ~290 kg dry
Launch date (UTC)
2022-09-24 (4 years ago)
Launch vehicle
FALCON 9
Launch site
Air Force Eastern Test Range (AFETR)
Object type
Payload
Rocket body
Debris
Shape & HBR
Box + 1 Pan, 10.1 m
Radar Cross Section
13.562 m², Large (>1 m²)

Expand to show TLE details & history
Last TLE update: 7 months ago

TLE from 7 months ago
0 STARLINK-5008
1 53927U 22119AT  25321.52494863  .12032580  12501-4  21381-3 0  9997
2 53927  53.1701 339.5872 0003691 166.7563 193.3586 16.47594803176540
Epoch: 2025-11-17T12:35Z
TLE epoch observation values (Epoch: 2025-11-17T12:35:55.561Z)
Latitude
-0.00003°
Longitude
93.78153°
Altitude
148.966 km
Speed
7.817 km/s
True Right ascension
22h 38m 20s
True Declination
0° 00' 00"
Sunlit
Object was in full shadow at epoch
Visualization orbit readout
Latitude
Unknown
Longitude
Unknown
Altitude
Unknown
Speed
Unknown
Apparent Right ascension
Unknown
Apparent Declination
Unknown
Sunlit
N/A
Visualization observer readout
Local Sidereal Time
21:34:38
Azimuth
Unknown
Elevation
Unknown
Doppler factor
Unknown
Orbital elements
Apogee altitude
148.352 km
Perigee altitude
143.536 km
Semi-major axis
6,524.081 km
Eccentricity
0.00037
Inclination
53.1701°
RAAN
339.5872°
Arg. of periapsis
166.7563°
True anomaly
193.34883°
Mean anomaly
193.3586°
Eccentric anomaly
193.35372°
Mean motion
4.11874 °/min
Orbital period
87.41 mins
BSTAR
0.00021381
Loading maneuver chart data...
Computing Atmospheric mass density...
Loading historical data...
Loading historical data...
Loading historical data...
Loading historical data...
Loading historical data...
Loading historical data...
Loading historical data...

Documentation

Showing up to 5 results
|